Weather History for KLAM - July, 2013

Change the Weather History Date:

Friday, July 26, 2013

  Actual Average Record
Temperature  
Mean Temperature 68 °F -  
Max Temperature 79 °F 78 °F 90 °F (1980)
Min Temperature 57 °F 54 °F 46 °F (1991)
Cooling Degree Days 3    
Growing Degree Days 18 (Base 50)    
Moisture  
Dew Point 55 °F    
Average Humidity 73    
Maximum Humidity 97    
Minimum Humidity 36    
Precipitation  
Precipitation 0.25 in - - ()
Sea Level Pressure  
Sea Level Pressure 30.43 in    
Wind  
Wind Speed 6 mph (SW)    
Max Wind Speed 36 mph    
Max Gust Speed 51 mph    
Visibility 10 miles    
Events Rain    
Averages and records for this station are not official NWS values.
T = Trace of Precipitation, MM = Missing Value Source: NWS Daily Summary

Daily Weather History Graph

Daily Weather History Graph

Search for Another Location

Airport or City:

Trip Planner

Search our weather history database for the weather conditions in past years. The results will help you decide how hot, cold, wet, or windy it might be!

Date:

Astronomy

Jul. 26, 2013 Rise Set
Actual Time 6:08 AM MDT 8:14 PM MDT
Civil Twilight 5:39 AM MDT 8:43 PM MDT
Nautical Twilight 5:04 AM MDT 9:17 PM MDT
Astronomical Twilight 4:26 AM MDT 9:55 PM MDT
Moon 10:42 PM MDT (7/26) 10:36 AM MDT (7/26)
Length of Visible Light 15h 03m
Length of Day
14h 06m
Waning Gibbous, 79% of the Moon is Illuminated
Jul 26
Waning Gibbous
Jul 29
Last Quarter
Aug 6
New
Aug 14
First Quarter
Aug 20
Full

Hourly Weather History & Observations

Time (MDT) Temp. Dew Point Humidity Pressure Visibility Wind Dir Wind Speed Gust Speed Precip Events Conditions
12:15 AM 58.8 °F 55.9 °F 90% 30.45 in 10.0 mi Calm Calm - N/A   Mostly Cloudy
12:35 AM 60.3 °F 54.1 °F 80% 30.45 in 10.0 mi WNW 9.2 mph - N/A   Mostly Cloudy
12:55 AM 60.8 °F 54.3 °F 79% 30.46 in 10.0 mi WNW 8.1 mph - N/A Rain Light Rain
1:15 AM 59.0 °F 55.4 °F 88% 30.45 in 7.0 mi NNW 5.8 mph - 0.02 in Rain Light Rain
1:35 AM 59.0 °F 55.4 °F 88% 30.45 in 10.0 mi NW 4.6 mph - 0.02 in   Drizzle
1:55 AM 60.6 °F 54.5 °F 80% 30.45 in 10.0 mi WNW 6.9 mph - 0.02 in   Overcast
2:15 AM 61.7 °F 53.6 °F 75% 30.44 in 10.0 mi NW 5.8 mph - N/A Rain Light Rain
2:35 AM 61.7 °F 53.6 °F 75% 30.43 in 10.0 mi Calm Calm - N/A   Scattered Clouds
2:55 AM 61.2 °F 53.8 °F 77% 30.41 in 10.0 mi WNW 3.5 mph - N/A   Scattered Clouds
3:15 AM 60.6 °F 54.7 °F 81% 30.41 in 10.0 mi Calm Calm - N/A   Mostly Cloudy
3:35 AM 61.7 °F 54.7 °F 78% 30.40 in 10.0 mi WSW 5.8 mph - N/A   Mostly Cloudy
3:55 AM 62.4 °F 53.6 °F 73% 30.39 in 10.0 mi WSW 6.9 mph - N/A   Scattered Clouds
4:15 AM 62.4 °F 52.7 °F 70% 30.40 in 10.0 mi SW 5.8 mph - N/A   Clear
4:35 AM 59.5 °F 54.5 °F 83% 30.41 in 10.0 mi NE 4.6 mph - N/A   Clear
4:55 AM 58.3 °F 54.9 °F 88% 30.41 in 10.0 mi NNE 4.6 mph - N/A   Clear
5:15 AM 57.7 °F 55.8 °F 93% 30.41 in 10.0 mi North 3.5 mph - N/A   Clear
5:35 AM 57.4 °F 56.3 °F 96% 30.42 in 10.0 mi Calm Calm - N/A   Scattered Clouds
5:55 AM 57.2 °F 56.3 °F 97% 30.43 in 10.0 mi Calm Calm - N/A   Scattered Clouds
6:15 AM 58.1 °F 55.6 °F 91% 30.43 in 10.0 mi NW 3.5 mph - N/A   Scattered Clouds
6:35 AM 58.3 °F 54.9 °F 88% 30.43 in 10.0 mi WNW 3.5 mph - N/A   Scattered Clouds
6:55 AM 59.2 °F 54.0 °F 83% 30.43 in 10.0 mi NW 3.5 mph - N/A   Clear
7:15 AM 60.1 °F 54.3 °F 81% 30.43 in 10.0 mi NW 3.5 mph - N/A   Clear
7:35 AM 60.8 °F 54.0 °F 78% 30.44 in 10.0 mi Calm Calm - N/A   Clear
7:55 AM 61.0 °F 54.3 °F 79% 30.45 in 10.0 mi NNW 3.5 mph - N/A   Clear
8:15 AM 61.9 °F 53.6 °F 74% 30.45 in 10.0 mi North 3.5 mph - N/A   Clear
8:35 AM 63.3 °F 55.2 °F 75% 30.45 in 10.0 mi NNE 4.6 mph - N/A   Clear
8:55 AM 63.5 °F 54.5 °F 72% 30.46 in 10.0 mi NE 3.5 mph - N/A   Clear
9:15 AM 64.4 °F 55.8 °F 73% 30.46 in 10.0 mi Calm Calm - N/A   Clear
9:35 AM 65.3 °F 55.8 °F 71% 30.46 in 10.0 mi Calm Calm - N/A   Clear
9:55 AM 65.8 °F 56.3 °F 71% 30.46 in 10.0 mi ENE 3.5 mph - N/A   Clear
10:15 AM 66.9 °F 56.8 °F 70% 30.46 in 10.0 mi Calm Calm - N/A   Clear
10:35 AM 68.0 °F 57.4 °F 69% 30.47 in 10.0 mi NNE 3.5 mph - N/A   Clear
10:55 AM 68.7 °F 57.7 °F 68% 30.46 in 10.0 mi ESE 4.6 mph - N/A   Clear
11:15 AM 69.8 °F 57.6 °F 65% 30.46 in 10.0 mi SE 3.5 mph - N/A   Scattered Clouds
11:35 AM 70.3 °F 56.8 °F 62% 30.46 in 10.0 mi SE 3.5 mph - N/A   Clear
11:55 AM 71.1 °F 58.1 °F 63% 30.46 in 10.0 mi East 6.9 mph - N/A   Clear
12:15 PM 71.4 °F 57.4 °F 61% 30.45 in 10.0 mi Calm Calm - N/A   Scattered Clouds
12:35 PM 72.7 °F 56.3 °F 56% 30.44 in 10.0 mi SSE 5.8 mph - N/A   Clear
12:55 PM 73.9 °F 56.3 °F 54% 30.43 in 10.0 mi SSE 5.8 mph - N/A   Clear
1:15 PM 73.0 °F 55.6 °F 54% 30.42 in 10.0 mi SE 6.9 mph - N/A   Clear
1:35 PM 74.5 °F 54.9 °F 50% 30.42 in 10.0 mi SSE 5.8 mph - N/A   Clear
1:55 PM 73.8 °F 54.9 °F 52% 30.40 in 10.0 mi SSE 5.8 mph - N/A   Clear
2:15 PM 73.9 °F 54.3 °F 50% 30.39 in 10.0 mi South 5.8 mph - N/A   Clear
2:35 PM 73.8 °F 54.5 °F 51% 30.39 in 10.0 mi South 4.6 mph - N/A   Clear
2:55 PM 73.6 °F 54.3 °F 51% 30.39 in 10.0 mi South 9.2 mph - N/A   Clear
3:15 PM 74.1 °F 54.1 °F 50% 30.39 in 10.0 mi South 8.1 mph - N/A   Clear
3:35 PM 75.9 °F 54.7 °F 48% 30.38 in 10.0 mi SSW 9.2 mph - N/A   Clear
3:55 PM 77.5 °F 52.2 °F 41% 30.37 in 10.0 mi SSW 8.1 mph - N/A   Clear
4:15 PM 78.8 °F 51.6 °F 39% 30.35 in 10.0 mi South 11.5 mph 18.4 mph N/A   Clear
4:35 PM 79.0 °F 50.4 °F 37% 30.36 in 10.0 mi South 11.5 mph - N/A   Clear
4:55 PM 77.9 °F 49.1 °F 36% 30.36 in 10.0 mi South 10.4 mph - N/A   Clear
5:15 PM 78.1 °F 49.6 °F 37% 30.40 in 10.0 mi Calm Calm - N/A   Mostly Cloudy
5:35 PM 67.1 °F 50.0 °F 54% 30.39 in 10.0 mi NNW 35.7 mph 50.6 mph N/A Rain Rain
5:55 PM 60.4 °F 52.5 °F 75% 30.45 in 3.0 mi NNW 18.4 mph 26.5 mph 0.10 in Rain Heavy Rain
6:15 PM 60.6 °F 52.5 °F 75% 30.46 in 5.0 mi WNW 8.1 mph 20.7 mph 0.04 in Rain Light Rain
6:35 PM 61.0 °F 52.3 °F 73% 30.43 in 10.0 mi NNW 16.1 mph 19.6 mph 0.06 in Rain Rain
6:55 PM 59.7 °F 53.6 °F 80% 30.43 in 7.0 mi WNW 6.9 mph - 0.10 in Rain Rain
7:15 PM 60.8 °F 54.7 °F 80% 30.41 in 7.0 mi SSE 11.5 mph - 0.02 in Rain Light Rain
7:35 PM 60.4 °F 55.0 °F 82% 30.43 in 10.0 mi SW 8.1 mph - 0.03 in   Light Drizzle
7:55 PM 59.9 °F 55.2 °F 84% 30.43 in 10.0 mi SSW 11.5 mph - 0.03 in   Scattered Clouds
8:15 PM 60.3 °F 54.3 °F 81% 30.43 in 10.0 mi SSW 10.4 mph - N/A   Mostly Cloudy
8:35 PM 60.3 °F 53.6 °F 79% 30.45 in 10.0 mi South 12.7 mph 17.3 mph N/A Rain Light Rain
8:55 PM 58.1 °F 55.9 °F 93% 30.45 in 10.0 mi South 15.0 mph 29.9 mph N/A   Light Drizzle
9:15 PM 58.1 °F 55.6 °F 91% 30.46 in 10.0 mi South 19.6 mph 25.3 mph N/A   Mostly Cloudy
9:35 PM 58.1 °F 54.9 °F 89% 30.46 in 10.0 mi South 13.8 mph 21.9 mph N/A   Mostly Cloudy
9:55 PM 58.1 °F 55.0 °F 90% 30.47 in 10.0 mi South 15.0 mph 18.4 mph N/A   Mostly Cloudy
10:15 PM 57.2 °F 55.9 °F 96% 30.47 in 10.0 mi South 11.5 mph 17.3 mph N/A   Scattered Clouds
10:35 PM 57.2 °F 55.9 °F 96% 30.47 in 10.0 mi South 11.5 mph - N/A   Scattered Clouds
10:55 PM 57.4 °F 55.4 °F 93% 30.48 in 10.0 mi South 12.7 mph - N/A   Scattered Clouds
11:15 PM 57.6 °F 54.7 °F 90% 30.49 in 10.0 mi South 5.8 mph - N/A   Clear
11:35 PM 57.2 °F 55.6 °F 94% 30.48 in 10.0 mi SSW 5.8 mph - N/A   Clear
11:55 PM 57.2 °F 55.8 °F 95% 30.47 in 10.0 mi SW 4.6 mph - N/A   Clear